Home > Weather > Sandefjord > Past weeks

Flag for Norway Weather for the Past 2 Weeks in Sandefjord, Norway

Now
27 °F

Scattered clouds.


Feels Like: 27 °F
Forecast: 18 / 26 °F
Wind: 2 mph from North

Location: Torp

Current Time: Feb 13, 2016 at 5:18:22 PM

Latest Report: Feb 13, 2016 at 4:50 PM


Visibility: N/A

Pressure: 29.45 "Hg

Humidity: 80%

Dew point: 21 °F

Location of SandefjordLocation

Historic Weather in Sandefjord — Graph

°F

Sandefjord Temperature Yesterday

Maximum temperature yesterday: 34 °F (at 1:50 PM)
Minimum temperature yesterday: 27 °F (at 1:20 AM)
Average temperature yesterday: 28 °F

High & Low Weather Summary for the Past Weeks

 TemperatureHumidityPressure
High45 °F (Jan 29, 4:20 PM)100% (Jan 29, 3:20 PM)29.92 "Hg (Jan 29, 3:20 PM)
Low23 °F (Feb 13, 8:20 AM)38% (Feb 12, 1:50 PM)28.74 "Hg (Feb 2, 6:20 PM)
Average35 °F82%29.28 "Hg
* Reported Jan 29 3:20 PM — Feb 13 3:50 PM, Sandefjord, Weather by CustomWeather, © 2016

Note: Actual official high and low records may vary slightly from our data, if they occured in-between our weather recording intervals... More about our weather records

Advertising

Sandefjord Weather History for the Previous 24 Hours

 ConditionsComfort  
Time TempWeatherWind HumidityBarometerVisibility
3:50 PM
Sat, Feb 13
27 °FScattered clouds.2 mph86%29.45 "HgN/A
3:20 PM27 °FPartly sunny.2 mph80%29.45 "HgN/A
2:50 PM27 °FLight snow. Mostly cloudy.3 mph86%29.45 "Hg4 mi
2:20 PM27 °FLight mixture of precip. Scattered clouds.5 mph86%29.45 "HgN/A
1:50 PM27 °FLight mixture of precip. Scattered clouds.5 mph86%29.45 "HgN/A
1:20 PM27 °FLight mixture of precip. Scattered clouds.3 mph80%29.45 "HgN/A
12:50 PM27 °FScattered clouds.7 mph80%29.45 "HgN/A
12:20 PM27 °FPassing clouds.6 mph80%29.45 "HgN/A
11:50 AM27 °FPassing clouds.5 mph80%29.45 "HgN/A
11:20 AM27 °FPassing clouds.5 mph80%29.45 "HgN/A
10:50 AM27 °FPassing clouds.7 mph86%29.45 "HgN/A
10:20 AM27 °FPassing clouds.6 mph86%29.45 "HgN/A
9:50 AM25 °FPassing clouds.7 mph100%29.45 "HgN/A
9:20 AM23 °FPassing clouds.6 mph100%29.45 "HgN/A
8:50 AM23 °FSunny.6 mph100%29.45 "Hg10 mi
8:20 AM23 °FSunny.6 mph100%29.45 "Hg10 mi
7:50 AM25 °FPassing clouds.6 mph100%29.45 "Hg5 mi
7:20 AM25 °FLight snow. Passing clouds.9 mph100%29.45 "Hg5 mi
6:50 AM25 °FSnow flurries. Ice fog.8 mph100%29.45 "Hg2 mi
6:20 AM25 °FSnow flurries. Ice fog.9 mph100%29.45 "Hg3 mi
5:50 AM25 °FSnow flurries. Ice fog.8 mph100%29.45 "Hg2 mi
5:20 AM25 °FSleet. Ice fog.7 mph100%29.45 "Hg2 mi
4:50 AM25 °FLight snow. Ice fog.7 mph100%29.45 "Hg2 mi
4:20 AM25 °FLight snow. Ice fog.6 mph100%29.45 "Hg1 mi
3:50 AM25 °FLight snow. Ice fog.6 mph100%29.45 "Hg1 mi
3:20 AM25 °FLight snow. Ice fog.8 mph100%29.45 "Hg2 mi
2:50 AM25 °FSnow flurries. Overcast.8 mph100%29.45 "Hg3 mi
2:20 AM25 °FLight snow. Ice fog.8 mph100%29.47 "Hg2 mi
1:50 AM25 °FLight snow. Ice fog.7 mph100%29.47 "Hg2 mi
1:20 AM27 °FLight snow. Ice fog.8 mph93%29.47 "Hg1 mi
12:50 AM27 °FLight snow. Ice fog.8 mph100%29.47 "Hg1 mi
11:50 PM
Fri, Feb 12
27 °FLight snow. Ice fog.8 mph100%29.47 "Hg3 mi
11:20 PM27 °FLight snow. Ice fog.9 mph100%29.47 "Hg2 mi
10:50 PM27 °FLight snow. Passing clouds.9 mph100%29.47 "Hg2 mi
10:20 PM27 °FLight snow. Ice fog.8 mph100%29.47 "Hg3 mi
9:50 PM27 °FLight snow. Ice fog.8 mph93%29.47 "Hg2 mi
9:20 PM27 °FLight snow. Partly cloudy.10 mph93%29.47 "Hg3 mi
8:50 PM27 °FLight snow. Partly cloudy.10 mph86%29.47 "Hg5 mi
8:20 PM27 °FLight snow. Ice fog.9 mph86%29.50 "HgN/A
7:50 PM28 °FLight mixture of precip. Passing clouds.13 mph69%29.50 "HgN/A
7:20 PM28 °FLight mixture of precip. Passing clouds.8 mph74%29.50 "HgN/A
6:50 PM27 °FLight snow. Passing clouds.3 mph80%29.50 "HgN/A
6:20 PM27 °FClear.6 mph80%29.50 "Hg10 mi
5:50 PM28 °FPassing clouds.2 mph74%29.50 "HgN/A
5:20 PM28 °FPassing clouds.2 mph74%29.50 "HgN/A
Weather by CustomWeather, © 2016

See weather overviewHow to use our weather pages